Wise, VA

12:13 AM EDT on March 28, 2017 (GMT -0400)
Lonesome Pine

Weather History for KLNP - March, 2013

Change the Weather History Date:

Friday, March 1, 2013

  Actual Average Record
Temperature  
Mean Temperature 32 °F -  
Max Temperature 35 °F 46 °F 73 °F (1997)
Min Temperature 30 °F 30 °F 15 °F (2002)
Degree Days  
Heating Degree Days 32    
Moisture  
Dew Point 31 °F    
Average Humidity 99    
Maximum Humidity 100    
Minimum Humidity 87    
Precipitation  
Precipitation 0.11 in - - ()
Sea Level Pressure  
Sea Level Pressure 29.87 in    
Wind  
Wind Speed 6 mph (NW)    
Max Wind Speed 10 mph    
Max Gust Speed -    
Visibility 2 miles    
Events Snow    
Averages and records for this station are not official NWS values.
T = Trace of Precipitation, MM = Missing Value Source: NWS Daily Summary

Daily Weather History Graph

Daily Weather History Graph

Search for Another Location

Airport or City:

Trip Planner

Search our weather history database for the weather conditions in past years. The results will help you decide how hot, cold, wet, or windy it might be!

Date:

Astronomy

Mar. 01, 2013 Rise Set
Actual Time 7:00 AM EST 6:24 PM EST
Civil Twilight 6:34 AM EST 6:50 PM EST
Nautical Twilight 6:04 AM EST 7:20 PM EST
Astronomical Twilight 5:34 AM EST 7:50 PM EST
Moon 10:48 PM EST (3/1) 8:53 AM EST (3/1)
Length of Visible Light 12h 16m
Length of Day
11h 23m
Waning Gibbous, 83% of the Moon is Illuminated
Mar 1
Waning Gibbous
Mar 4
Last Quarter
Mar 11
New
Mar 19
First Quarter
Mar 27
Full

Hourly Weather History & Observations

Time (EST) Temp. Windchill Dew Point Humidity Pressure Visibility Wind Dir Wind Speed Gust Speed Precip Events Conditions
12:15 AM 30.2 °F 24.3 °F 30.2 °F 100% 29.87 in 2.5 mi West 5.8 mph - N/A   Overcast
12:35 AM 30.2 °F 24.3 °F 30.2 °F 100% 29.87 in 4.0 mi West 5.8 mph - N/A   Overcast
12:55 AM 30.2 °F 21.9 °F 30.2 °F 100% 29.87 in 3.0 mi West 9.2 mph - N/A   Overcast
1:15 AM 30.2 °F 23.4 °F 30.2 °F 100% 29.87 in 3.0 mi West 6.9 mph - N/A   Overcast
1:35 AM 30.2 °F 21.9 °F 30.2 °F 100% 29.86 in 4.0 mi West 9.2 mph - N/A   Overcast
1:55 AM 30.2 °F 23.4 °F 30.2 °F 100% 29.86 in 4.0 mi West 6.9 mph - N/A   Overcast
2:15 AM 30.2 °F 23.4 °F 30.2 °F 100% 29.86 in 4.0 mi West 6.9 mph - N/A   Overcast
2:35 AM 30.2 °F 24.3 °F 30.2 °F 100% 29.85 in 3.0 mi West 5.8 mph - N/A   Overcast
3:15 AM 30.2 °F 21.3 °F 30.2 °F 100% 29.84 in 2.5 mi WNW 10.4 mph - N/A   Overcast
3:35 AM 30.2 °F 22.6 °F 30.2 °F 100% 29.84 in 2.0 mi West 8.1 mph - N/A   Overcast
3:55 AM 30.2 °F 23.4 °F 30.2 °F 100% 29.84 in 2.5 mi West 6.9 mph - N/A   Overcast
4:35 AM 30.2 °F 23.4 °F 30.2 °F 100% 29.83 in 3.0 mi WNW 6.9 mph - N/A   Overcast
4:55 AM 30.2 °F 23.4 °F 30.2 °F 100% 29.84 in 3.0 mi WNW 6.9 mph - N/A   Overcast
5:15 AM 30.2 °F 22.6 °F 30.2 °F 100% 29.85 in 2.5 mi WNW 8.1 mph - N/A   Overcast
5:35 AM 30.2 °F 24.3 °F 30.2 °F 100% 29.85 in 3.0 mi West 5.8 mph - N/A   Overcast
5:55 AM 30.2 °F 26.7 °F 30.2 °F 100% 29.86 in 2.5 mi West 3.5 mph - N/A   Overcast
6:15 AM 30.2 °F 24.3 °F 30.2 °F 100% 29.86 in 2.5 mi West 5.8 mph - N/A   Overcast
6:35 AM 30.2 °F 25.4 °F 30.2 °F 100% 29.86 in 3.0 mi West 4.6 mph - N/A   Overcast
6:55 AM 30.2 °F 26.7 °F 30.2 °F 100% 29.85 in 1.5 mi West 3.5 mph - N/A Snow Light Snow
7:15 AM 30.2 °F 26.7 °F 30.2 °F 100% 29.85 in 3.0 mi West 3.5 mph - N/A   Overcast
7:35 AM 32.0 °F 27.5 °F 32.0 °F 100% 29.85 in 2.5 mi West 4.6 mph - N/A Snow Light Snow
7:55 AM 32.0 °F 26.4 °F 32.0 °F 100% 29.86 in 4.0 mi WNW 5.8 mph - N/A   Overcast
8:15 AM 32.0 °F 27.5 °F 32.0 °F 100% 29.87 in 3.0 mi WNW 4.6 mph - N/A   Overcast
8:35 AM 32.0 °F 27.5 °F 32.0 °F 100% 29.88 in 3.0 mi NW 4.6 mph - N/A   Overcast
9:15 AM 32.0 °F 27.5 °F 32.0 °F 100% 29.88 in 1.5 mi WNW 4.6 mph - N/A   Overcast
9:35 AM 32.0 °F 26.4 °F 32.0 °F 100% 29.88 in 1.8 mi WNW 5.8 mph - N/A   Overcast
9:55 AM 32.0 °F 25.6 °F 32.0 °F 100% 29.88 in 1.0 mi WNW 6.9 mph - N/A Snow Light Snow
10:15 AM 32.0 °F 26.4 °F 32.0 °F 100% 29.88 in 1.2 mi WNW 5.8 mph - N/A   Overcast
10:35 AM 32.0 °F 24.8 °F 32.0 °F 100% 29.88 in 2.5 mi West 8.1 mph - N/A   Overcast
11:15 AM 32.0 °F 26.4 °F 32.0 °F 100% 29.88 in 1.5 mi NW 5.8 mph - N/A Snow Light Snow
11:35 AM 33.8 °F 27.7 °F 32.0 °F 93% 29.88 in 1.2 mi WNW 6.9 mph - N/A Snow Light Snow
11:55 AM 33.8 °F 27.7 °F 32.0 °F 93% 29.89 in 1.2 mi WNW 6.9 mph - N/A Snow Light Snow
12:15 PM 33.8 °F 27.7 °F 32.0 °F 93% 29.89 in 2.0 mi NNW 6.9 mph - N/A Snow Light Snow
12:35 PM 32.0 °F 27.5 °F 32.0 °F 100% 29.88 in 1.0 mi NNW 4.6 mph - 0.03 in Snow Light Snow
1:15 PM 35.6 °F 29.2 °F 32.0 °F 87% 29.87 in 1.2 mi WNW 8.1 mph - 0.04 in Snow Light Snow
1:35 PM 33.8 °F 27.7 °F 32.0 °F 93% 29.87 in 1.8 mi NW 6.9 mph - 0.06 in Snow Light Snow
1:55 PM 33.8 °F 26.4 °F 32.0 °F 93% 29.86 in 2.0 mi North 9.2 mph - 0.07 in   Overcast
2:15 PM 32.0 °F 25.6 °F 32.0 °F 100% 29.86 in 1.0 mi North 6.9 mph - N/A Snow Light Snow
2:35 PM 32.0 °F 25.6 °F 32.0 °F 100% 29.85 in 1.5 mi North 6.9 mph - N/A Snow Light Snow
2:55 PM 33.8 °F 29.6 °F 33.8 °F 100% 29.85 in 1.5 mi NNW 4.6 mph - 0.01 in Snow Light Snow
3:15 PM 32.0 °F 24.8 °F 32.0 °F 100% 29.86 in 1.0 mi NNE 8.1 mph - N/A Snow Light Snow
3:35 PM 32.0 °F 28.7 °F 32.0 °F 100% 29.85 in 1.2 mi NNW 3.5 mph - N/A Snow Light Snow
4:15 PM 32.0 °F 27.5 °F 32.0 °F 100% 29.85 in 2.0 mi North 4.6 mph - N/A   Overcast
4:35 PM 32.0 °F 28.7 °F 32.0 °F 100% 29.86 in 2.0 mi North 3.5 mph - N/A   Overcast
4:55 PM 32.0 °F 27.5 °F 32.0 °F 100% 29.86 in 1.5 mi NNW 4.6 mph - N/A   Overcast
5:15 PM 32.0 °F 27.5 °F 32.0 °F 100% 29.86 in 3.0 mi NW 4.6 mph - N/A   Overcast
5:35 PM 32.0 °F 28.7 °F 32.0 °F 100% 29.87 in 2.5 mi NW 3.5 mph - N/A   Overcast
5:55 PM 32.0 °F 25.6 °F 32.0 °F 100% 29.88 in 2.0 mi NNW 6.9 mph - N/A   Overcast
6:15 PM 32.0 °F 27.5 °F 32.0 °F 100% 29.88 in 0.5 mi NNW 4.6 mph - N/A Snow Light Snow
6:35 PM 32.0 °F 24.8 °F 32.0 °F 100% 29.88 in 3.0 mi NW 8.1 mph - N/A Snow Light Snow
6:55 PM 32.0 °F 28.7 °F 32.0 °F 100% 29.88 in 3.0 mi NW 3.5 mph - N/A Snow Light Snow
7:15 PM 32.0 °F 28.7 °F 32.0 °F 100% 29.89 in 4.0 mi NNW 3.5 mph - N/A Snow Light Snow
7:35 PM 32.0 °F 28.7 °F 32.0 °F 100% 29.89 in 5.0 mi NW 3.5 mph - N/A Snow Light Snow
7:55 PM 32.0 °F 27.5 °F 32.0 °F 100% 29.89 in 4.0 mi NNW 4.6 mph - N/A Snow Light Snow
8:15 PM 32.0 °F 26.4 °F 32.0 °F 100% 29.89 in 3.0 mi NW 5.8 mph - N/A   Overcast
8:35 PM 32.0 °F 27.5 °F 32.0 °F 100% 29.89 in 2.5 mi North 4.6 mph - N/A Snow Light Snow
8:55 PM 32.0 °F 26.4 °F 32.0 °F 100% 29.89 in 3.0 mi NNW 5.8 mph - N/A Snow Light Snow
9:15 PM 32.0 °F 25.6 °F 32.0 °F 100% 29.89 in 4.0 mi NNW 6.9 mph - N/A   Overcast
9:35 PM 32.0 °F 27.5 °F 32.0 °F 100% 29.89 in 5.0 mi North 4.6 mph - N/A   Overcast
9:55 PM 32.0 °F 28.7 °F 32.0 °F 100% 29.89 in 2.5 mi North 3.5 mph - N/A Snow Light Snow
10:15 PM 32.0 °F - 32.0 °F 100% 29.90 in 2.5 mi Calm Calm - N/A   Overcast
10:35 PM 32.0 °F 25.6 °F 32.0 °F 100% 29.90 in 4.0 mi NNE 6.9 mph - N/A   Overcast
10:55 PM 30.2 °F 25.4 °F 30.2 °F 100% 29.89 in 2.0 mi North 4.6 mph - N/A Snow Light Snow
11:15 PM 30.2 °F 25.4 °F 30.2 °F 100% 29.89 in 1.2 mi North 4.6 mph - N/A Snow Light Snow
11:35 PM 30.2 °F 26.7 °F 30.2 °F 100% 29.88 in 3.0 mi North 3.5 mph - N/A   Overcast
11:55 PM 30.2 °F - 30.2 °F 100% 29.88 in 1.0 mi Calm Calm - N/A Snow Light Snow